Content
SEND FEEDBACK

Daily
Averages
Monthly
Summary
United States of America

METTER, GEORGIA


Home > North America > United States > Georgia
Elevation: 222 feet     Latitude: 32 24N     Longitude: 082 04W

WEATHER
 
SELECT A DAY
Number of Records: 325,383;   Date Range: 6/21/01 - 11/21/14
 
SHARE

PRINT THIS DATA

[ ← Previous Day ]
WEATHER ALMANAC - FEBRUARY 13, 2013
[ Next Day → ]
[ °C ]   °F
Weather ElementAverageHighLow
Temperature58.3 °F71.6 °F (12:55 pm)50 °F (11:35 pm)
Dewpoint52.1 °F64.4 °F (10:35 am)44.6 °F (5:15 pm)
Humidity82.6 %100 % (12:35 am)43 % (2:35 pm)
Barometer29.82 in29.94 in (10:15 pm)29.75 in (1:15 pm)
Wind Speed7.4 mph16.1 mph (11:35 am)
Wind Gust24.2 mph (1:55 pm)
Weather ElementAverage
Visibility9.4 mi
Wind DirectionSSW (192.9 °)

Weather ElementTotal
Precipitation---
Heating Degree Days4.2 (Base 65)
Growing Degree Days10.8 (Base 50)
Averaged from 70 records on February 13, 2013
WEATHER CONDITIONS BREAKOUT
WIND DIRECTION BREAKOUT
WEATHER BY HOUR - FEBRUARY 13, 2013
[ °C ]   °F
Local TimeTemperatureDewpointHumidityBarometerVisibilityWind DirectionWind SpeedGust SpeedPrecipitationEventsConditions
12:35 AM55.4 °F55.4 °F100 %29.85 in5.0 miCalmRainRain
12:55 AM53.6 °F53.6 °F100 %29.82 in10.0 miNE (50°)4.6 mphThunderstorm
1:15 AM53.6 °F53.6 °F100 %29.83 in10.0 miENE (70°)4.6 mphOvercast
1:35 AM53.6 °F53.6 °F100 %29.81 in10.0 miNE (40°)4.6 mphThunderstormOvercast
1:55 AM53.6 °F53.6 °F100 %29.80 in10.0 miNNE (20°)4.6 mphRain-ThunderstormLight Thunderstorms and Rain
2:15 AM53.6 °F53.6 °F100 %29.79 in10.0 miNE (40°)3.5 mphThunderstormThunderstorm
2:35 AM53.6 °F53.6 °F100 %29.80 in10.0 miCalmThunderstormOvercast
2:55 AM53.6 °F53.6 °F100 %29.78 in10.0 miNE (50°)4.6 mphThunderstormThunderstorm
3:15 AM53.6 °F53.6 °F100 %29.79 in10.0 miNorth (360°)5.8 mphThunderstorm
3:35 AM53.6 °F53.6 °F100 %29.79 in10.0 miNNW (330°)3.5 mph16.1 mphThunderstormOvercast
3:55 AM53.6 °F53.6 °F100 %29.77 in10.0 miCalmThunderstormThunderstorm
4:15 AM53.6 °F53.6 °F100 %29.78 in10.0 miCalmThunderstormOvercast
4:35 AM53.6 °F53.6 °F100 %29.77 in7.0 miCalmOvercast
4:55 AM53.6 °F53.6 °F100 %29.77 in5.0 miCalmOvercast
5:15 AM53.6 °F53.6 °F100 %29.77 in7.0 miNNE (20°)3.5 mphOvercast
5:35 AM53.6 °F53.6 °F100 %29.77 in5.0 miCalmOvercast
5:55 AM53.6 °F53.6 °F100 %29.77 in7.0 miNorth (360°)3.5 mphOvercast
6:15 AM53.6 °F53.6 °F100 %29.79 in7.0 miCalmOvercast
6:35 AM53.6 °F53.6 °F100 %29.78 in4.0 miCalmOvercast
7:15 AM53.6 °F53.6 °F100 %29.79 in4.0 miCalmOvercast
7:35 AM53.6 °F53.6 °F100 %29.80 in7.0 miCalmOvercast
7:55 AM53.6 °F53.6 °F100 %29.80 in10.0 miCalmOvercast
8:15 AM55.4 °F55.4 °F100 %29.81 in7.0 miCalmOvercast
8:35 AM55.4 °F55.4 °F100 %29.81 in10.0 miCalmOvercast
8:55 AM55.4 °F55.4 °F100 %29.81 in10.0 miCalmOvercast
9:15 AM57.2 °F57.2 °F100 %29.81 in10.0 miSouth (190°)3.5 mphOvercast
9:35 AM59.0 °F59.0 °F100 %29.80 in10.0 miSouth (180°)4.6 mphOvercast
9:55 AM60.8 °F60.8 °F100 %29.82 in10.0 miWSW (240°)4.6 mphOvercast
10:15 AM62.6 °F62.6 °F100 %29.80 in10.0 miSW (220°)6.9 mphOvercast
10:35 AM64.4 °F64.4 °F100 %29.81 in10.0 miWest (260°)8.1 mphOvercast
10:55 AM64.4 °F64.4 °F100 %29.82 in10.0 miWest (260°)13.8 mph20.7 mphOvercast
11:15 AM64.4 °F64.4 °F100 %29.81 in10.0 miWest (270°)13.8 mph23.0 mphOvercast
11:35 AM68.0 °F60.8 °F78 %29.79 in10.0 miWSW (250°)16.1 mph23.0 mphScattered Clouds
11:55 AM69.8 °F57.2 °F64 %29.79 in10.0 miWest (260°)13.8 mph21.9 mphClear
12:15 PM68.0 °F53.6 °F60 %29.79 in10.0 miWSW (250°)15.0 mph23.0 mphClear
12:35 PM69.8 °F53.6 °F56 %29.77 in10.0 miWSW (240°)13.8 mph19.6 mphClear
12:55 PM71.6 °F53.6 °F53 %29.77 in10.0 miWest (260°)15.0 mph19.6 mphClear
1:15 PM71.6 °F51.8 °F50 %29.75 in10.0 miWest (260°)9.2 mph23.0 mphClear
1:35 PM69.8 °F51.8 °F53 %29.75 in10.0 miWest (270°)13.8 mphClear
1:55 PM69.8 °F50.0 °F49 %29.77 in10.0 miWest (280°)16.1 mph24.2 mphClear
2:15 PM69.8 °F48.2 °F46 %29.76 in10.0 miWest (280°)13.8 mph20.7 mphClear
2:35 PM69.8 °F46.4 °F43 %29.76 in10.0 miWest (280°)15.0 mph19.6 mphClear
2:55 PM68.0 °F48.2 °F49 %29.75 in10.0 miWest (280°)12.7 mph19.6 mphClear
3:15 PM68.0 °F48.2 °F49 %29.76 in10.0 miWest (270°)16.1 mph21.9 mphClear
3:35 PM66.2 °F48.2 °F52 %29.78 in10.0 miWNW (290°)13.8 mph20.7 mphScattered Clouds
3:55 PM64.4 °F48.2 °F56 %29.79 in10.0 miWest (280°)6.9 mphOvercast
4:15 PM64.4 °F48.2 °F56 %29.81 in10.0 miWest (270°)5.8 mphOvercast
4:35 PM64.4 °F48.2 °F56 %29.81 in10.0 miWest (280°)8.1 mphOvercast
4:55 PM64.4 °F46.4 °F52 %29.80 in10.0 miWest (280°)15.0 mph21.9 mphOvercast
5:15 PM64.4 °F44.6 °F49 %29.82 in10.0 miWest (260°)10.4 mph21.9 mphOvercast
5:35 PM62.6 °F44.6 °F52 %29.83 in10.0 miWest (270°)11.5 mph19.6 mphRainRain
5:55 PM59.0 °F48.2 °F67 %29.83 in10.0 miWest (270°)9.2 mphDrizzle
6:15 PM60.8 °F48.2 °F63 %29.82 in10.0 miWest (260°)9.2 mphRainLight Rain
6:35 PM59.0 °F48.2 °F67 %29.83 in10.0 miWest (270°)9.2 mphOvercast
6:55 PM57.2 °F50.0 °F77 %29.84 in10.0 miWest (260°)8.1 mphRainRain
7:15 PM55.4 °F51.8 °F88 %29.88 in10.0 miWNW (290°)13.8 mph18.4 mphRainLight Rain
7:35 PM53.6 °F51.8 °F94 %29.87 in10.0 miWest (280°)9.2 mphRainRain
7:55 PM53.6 °F50.0 °F88 %29.85 in10.0 miWNW (300°)10.4 mph21.9 mphRainRain
8:15 PM51.8 °F48.2 °F88 %29.88 in10.0 miWest (280°)9.2 mph19.6 mphRainLight Rain
8:35 PM51.8 °F48.2 °F88 %29.90 in10.0 miWNW (290°)11.5 mphMostly Cloudy
8:55 PM51.8 °F48.2 °F88 %29.91 in10.0 miWest (280°)8.1 mphScattered Clouds
9:15 PM51.8 °F48.2 °F88 %29.90 in10.0 miWNW (290°)8.1 mphClear
9:35 PM51.8 °F46.4 °F82 %29.92 in10.0 miWest (280°)10.4 mphClear
9:55 PM51.8 °F46.4 °F82 %29.92 in10.0 miWNW (290°)9.2 mphClear
10:15 PM51.8 °F46.4 °F82 %29.94 in10.0 miWNW (290°)8.1 mphClear
10:35 PM51.8 °F46.4 °F82 %29.92 in10.0 miWNW (300°)8.1 mphClear
10:55 PM51.8 °F46.4 °F82 %29.92 in10.0 miWNW (290°)9.2 mphClear
11:15 PM51.8 °F46.4 °F82 %29.92 in10.0 miNW (310°)9.2 mphClear
11:35 PM50.0 °F46.4 °F87 %29.90 in10.0 miNW (310°)5.8 mphClear
11:55 PM50.0 °F46.4 °F87 %29.93 in10.0 miWNW (290°)9.2 mphClear
Hourly data recorded from KTBR, located miles away from Metter, Georgia







STORIES FROM OUR PARTNERS